Location: Colonia Mina de C?rbuni
(46.1667°N, 22.7167°E)
Time: 16:56:55
(UTC+00:00)

Genesis I - Pass Details

Date: 04 February 2023
Orbit: 466 x 515 km, 64.5° (Epoch: 29 March)

Event Time Altitude Azimuth Distance (km) Brightness Sun altitude
Rises 16:48:12 0° 203° (SSW) 2,637 7.3 -12.5°
Reaches altitude 10° 16:50:23 10° 199° (SSW) 1,758 6.3 -12.8°
Maximum altitude 16:54:14 54° 122° (ESE) 647 3.4 -13.5°
Enters shadow 16:56:47 20° 51° (NE) 1,262 4.6 -13.9°
